Showing default

YAOGAN-30 U, 46807

Orbit data source: Space-Track

YAOGAN-30 U, 46807 is a payload satellite owned by PLA SSF (CN) in LEO that was launched on Mon, 26 Oct 2020 UTC via a CHANG ZHENG 2C launch vehicle from the Xichang Space Center, China (XSC). Payload-class satellites include a variety of spacecraft equipped with specific instruments for various scientific and technological missions. These include communications satellites like Starlink; space stations such as the ISS; scientific satellites like the Hubble; Earth observation satellites from companies like Planet Labs, Umbra, and HawkEye 360; GPS; miniature CubeSats for education and research; and military/defense satellites.

Loading next visibility...
Identifier
46807, 2020-076A
Orbit
LEO
Country
Flag of CNCN / PRC
Related business
Manufacturer
SECM
Mission
Operational Defense Sigint
Bus & Motor
Unknown
Mass
~500 kg wet, ~500 kg dry
Launch date (UTC)
2020-10-26 (5 years ago)
Launch vehicle
CHANG ZHENG 2C
Launch site
Xichang Space Center, China (XSC)
Object type
Payload
Rocket body
Debris
Shape & HBR
Box + 2 Pan, Unknown HBR
Radar Cross Section
0.446 m², Large (>1 m²)

Expand to show TLE details & history
Last TLE update: 8 hours ago

TLE from 8 hours ago
0 YAOGAN-30 U
1 46807U 20076A   25259.61748549  .00002957  00000-0  23133-3 0  9995
2 46807  34.9948 316.3345 0001003 237.8955 122.1656 15.00648695266968
Epoch: 2025-09-16T14:49Z
TLE epoch observation values (Epoch: 2025-09-16T14:49:10.746Z)
Latitude
0.00003°
Longitude
98.23456°
Altitude
564.183 km
Speed
7.581 km/s
True Right ascension
21h 05m 20s
True Declination
0° 00' 00"
Sunlit
Object was in full shadow at epoch
Visualization orbit readout
Latitude
Unknown
Longitude
Unknown
Altitude
Unknown
Speed
Unknown
Apparent Right ascension
Unknown
Apparent Declination
Unknown
Sunlit
N/A
Visualization observer readout
Local Sidereal Time
15:56:34
Azimuth
Unknown
Elevation
Unknown
Doppler factor
Unknown
Orbital elements
Apogee altitude
568.811 km
Perigee altitude
567.417 km
Semi-major axis
6,946.251 km
Eccentricity
0.0001
Inclination
34.9948°
RAAN
316.3345°
Arg. of periapsis
237.8955°
True anomaly
122.17533°
Mean anomaly
122.1656°
Eccentric anomaly
122.17046°
Mean motion
3.74902 °/min
Orbital period
96.03 mins
BSTAR
0.00023133
Loading maneuver chart data...
Computing Atmospheric mass density...
Loading historical data...
Loading historical data...
Loading historical data...
Loading historical data...
Loading historical data...
Loading historical data...
Loading historical data...
Other satellites on launch #76 in the year 2020 (2020-10-26 UTC)

Documentation

Showing up to 5 results
|